GW4987 Weather Reports


time (UTC)temp
C
wind
direction
speed
KPH
gust
KPH
rain 1hr
cm
rain 24hr
cm
rain mn
cm
humidity
%
barometer
mb
20260902223004 25 189 12.9 22.5 0.00 0.00 0.00 40 1021.4
20260902222504 26 206 20.9 24.1 0.00 0.00 0.00 39 1021.4
20260902222004 26 277 17.7 35.4 0.00 0.00 0.00 40 1021.5
20260902221504 26 203 19.3 32.2 0.00 0.00 0.00 39 1021.4
20260902221004 27 183 11.3 20.9 0.00 0.00 0.00 38 1021.4
20260902220504 26 199 14.5 24.1 0.00 0.00 0.00 39 1021.5
20260902220003 26 212 43.5 43.5 0.00 0.00 0.00 39 1021.6
20260902215503 26 210 8.0 22.5 0.00 0.00 0.00 40 1021.6
20260902215004 25 225 22.5 45.1 0.00 0.00 0.00 39 1021.8
20260902214504 25 225 24.1 46.7 0.00 0.00 0.00 38 1021.7
20260902214004 26 211 29.0 33.8 0.00 0.00 0.00 39 1021.8
20260902213504 26 221 17.7 27.4 0.00 0.00 0.00 38 1021.8
20260902213004 26 215 25.7 32.2 0.00 0.00 0.00 39 1021.7
20260902212504 27 204 29.0 30.6 0.00 0.00 0.00 39 1022.0
20260902212005 26 209 17.7 24.1 0.00 0.00 0.00 39 1021.8
20260902211504 26 209 17.7 24.1 0.00 0.00 0.00 39 1022.2
20260902211004 25 217 24.1 25.7 0.00 0.00 0.00 40 1021.9
20260902210504 25 217 24.1 25.7 0.00 0.00 0.00 40 1022.3
20260902210004 25 217 24.1 25.7 0.00 0.00 0.00 40 1022.3
20260902205504 25 217 24.1 25.7 0.00 0.00 0.00 40 1022.2
20260902205004 25 217 24.1 25.7 0.00 0.00 0.00 40 1022.0
20260902204504 25 217 24.1 25.7 0.00 0.00 0.00 40 1022.3
20260902204004 25 217 24.1 25.7 0.00 0.00 0.00 40 1022.2
20260902203504 25 217 24.1 25.7 0.00 0.00 0.00 40 1022.2
20260902203003 25 217 24.1 25.7 0.00 0.00 0.00 40 1022.2
20260902202504 25 199 16.1 45.1 0.00 0.00 0.00 44 1022.4
20260902202004 24 232 17.7 35.4 0.00 0.00 0.00 46 1022.3
20260902201506 25 226 14.5 30.6 0.00 0.00 0.00 46 1022.3
20260902201004 25 212 27.4 32.2 0.00 0.00 0.00 45 1022.4
20260902192503 24 165 11.3 30.6 0.00 0.00 0.00 47 1022.7
20260902192004 24 212 25.7 40.2 0.00 0.00 0.00 46 1022.6
20260902191503 25 207 22.5 30.6 0.00 0.00 0.00 45 1022.6
20260902191004 25 231 29.0 30.6 0.00 0.00 0.00 44 1022.7
20260902190504 25 168 24.1 35.4 0.00 0.00 0.00 45 1022.8
20260902190005 25 210 25.7 35.4 0.00 0.00 0.00 44 1022.8
20260902185504 25 215 30.6 32.2 0.00 0.00 0.00 44 1022.9
20260902185003 25 185 16.1 32.2 0.00 0.00 0.00 44 1022.7
20260902184505 24 189 12.9 53.1 0.00 0.00 0.00 46 1023.0
20260902183004 25 199 24.1 30.6 0.00 0.00 0.00 48 1022.8
20260902182504 23 211 20.9 33.8 0.00 0.00 0.00 49 1022.9
20260902182004 23 211 20.9 33.8 0.00 0.00 0.00 49 1022.9
20260902181504 23 211 20.9 33.8 0.00 0.00 0.00 49 1023.0
20260902181004 24 252 11.3 22.5 0.00 0.00 0.00 48 1023.0
20260902180504 24 252 11.3 22.5 0.00 0.00 0.00 48 1023.0
20260902174503 23 213 35.4 38.6 0.00 0.00 0.00 49 1023.1
20260902174003 24 207 25.7 29.0 0.00 0.00 0.00 48 1023.4
20260902173504 23 182 19.3 22.5 0.00 0.00 0.00 50 1023.4
20260902173003 23 182 19.3 22.5 0.00 0.00 0.00 50 1023.5
20260902172503 24 225 17.7 30.6 0.00 0.00 0.00 48 1023.2
20260902172004 23 215 12.9 30.6 0.00 0.00 0.00 49 1023.2
20260902171504 24 186 12.9 27.4 0.00 0.00 0.00 47 1023.6
20260902171004 24 191 11.3 19.3 0.00 0.00 0.00 47 1023.1
20260902170504 24 191 11.3 19.3 0.00 0.00 0.00 47 1023.2
20260902164504 23 175 20.9 25.7 0.00 0.00 0.00 48 1023.1
20260902164004 23 197 12.9 20.9 0.00 0.00 0.00 47 1023.2
20260902163504 23 169 17.7 20.9 0.00 0.00 0.00 47 1023.1
20260902163003 23 178 29.0 43.5 0.00 0.00 0.00 47 1023.0
20260902162504 23 141 12.9 25.7 0.00 0.00 0.00 46 1023.2
20260902162005 23 228 22.5 25.7 0.00 0.00 0.00 47 1022.8
20260902160005 22 189 24.1 25.7 0.00 0.00 0.00 49 1022.8
20260902155504 22 174 17.7 29.0 0.00 0.00 0.00 47 1022.9
20260902155004 22 196 17.7 17.7 0.00 0.00 0.00 50 1022.6
20260902154504 22 196 17.7 17.7 0.00 0.00 0.00 50 1022.8
20260902154004 22 173 6.4 9.7 0.00 0.00 0.00 50 1022.8
20260902153504 22 209 19.3 29.0 0.00 0.00 0.00 49 1022.8
20260902153004 22 209 19.3 29.0 0.00 0.00 0.00 49 1022.9
20260902152504 22 209 19.3 29.0 0.00 0.00 0.00 49 1022.8
20260902152004 22 222 12.9 17.7 0.00 0.00 0.00 52 1022.8
20260902151504 22 211 12.9 24.1 0.00 0.00 0.00 53 1022.6
20260902151004 21 171 22.5 27.4 0.00 0.00 0.00 52 1022.8
20260902150504 21 171 22.5 27.4 0.00 0.00 0.00 52 1022.9
20260902150003 21 171 22.5 27.4 0.00 0.00 0.00 52 1022.7
20260902145503 21 171 22.5 27.4 0.00 0.00 0.00 52 1022.8
20260902145004 21 168 14.5 14.5 0.00 0.00 0.00 56 1022.9
20260902144503 21 168 14.5 14.5 0.00 0.00 0.00 56 1022.9
20260902144004 21 168 14.5 14.5 0.00 0.00 0.00 56 1022.9
20260902134504 17 182 4.8 8.0 0.00 0.00 0.00 77 1022.5
20260902134004 17 182 4.8 8.0 0.00 0.00 0.00 77 1022.5
20260902133504 17 182 4.8 8.0 0.00 0.00 0.00 77 1022.6
20260902133003 17 182 4.8 8.0 0.00 0.00 0.00 77 1022.5
20260902132503 17 182 4.8 8.0 0.00 0.00 0.00 77 1022.3
20260902132004 17 182 4.8 8.0 0.00 0.00 0.00 77 1022.3
20260902131503 17 182 4.8 8.0 0.00 0.00 0.00 77 1022.4
20260902131003 17 182 4.8 8.0 0.00 0.00 0.00 77 1022.3
20260902130504 17 182 4.8 8.0 0.00 0.00 0.00 77 1022.3
20260902083504 20 199 12.9 17.7 0.00 0.00 0.00 64 1022.4
20260902081504 20 199 12.9 17.7 0.00 0.00 0.00 64 1022.4
20260902081003 20 199 12.9 17.7 0.00 0.00 0.00 64 1022.6
20260902075004 20 199 12.9 17.7 0.00 0.00 0.00 64 1022.4
20260902074504 20 199 12.9 17.7 0.00 0.00 0.00 64 1022.5
20260902074004 20 199 12.9 17.7 0.00 0.00 0.00 64 1022.5
20260902041504 21 180 6.4 6.4 0.00 0.00 0.00 60 1022.5
20260902041004 21 180 6.4 6.4 0.00 0.00 0.00 60 1022.3
20260902040504 21 180 6.4 6.4 0.00 0.00 0.00 60 1022.5
20260902040004 21 180 6.4 6.4 0.00 0.00 0.00 60 1022.5
20260902035504 21 180 6.4 6.4 0.00 0.00 0.00 60 1022.3
20260902035004 21 180 6.4 6.4 0.00 0.00 0.00 60 1022.4
20260902034503 21 180 6.4 6.4 0.00 0.00 0.00 60 1022.4
20260902034003 21 180 6.4 6.4 0.00 0.00 0.00 60 1022.3
20260902033504 21 180 6.4 6.4 0.00 0.00 0.00 60 1022.3
20260902033003 21 180 6.4 6.4 0.00 0.00 0.00 60 1022.3
20260902032503 21 180 6.4 6.4 0.00 0.00 0.00 60 1021.9
20260902032004 21 180 6.4 6.4 0.00 0.00 0.00 60 1021.9
20260902030004 22 213 17.7 19.3 0.00 0.00 0.00 54 1021.8
20260902025503 22 213 17.7 19.3 0.00 0.00 0.00 54 1022.0
20260902025003 22 213 17.7 19.3 0.00 0.00 0.00 54 1021.6
20260902024504 22 213 17.7 19.3 0.00 0.00 0.00 54 1021.6
20260902024003 22 213 17.7 19.3 0.00 0.00 0.00 54 1021.5
20260902023503 22 213 17.7 19.3 0.00 0.00 0.00 54 1021.7
20260902023004 22 213 17.7 19.3 0.00 0.00 0.00 54 1021.6
20260902022503 22 213 17.7 19.3 0.00 0.00 0.00 54 1021.6
20260902022003 22 213 17.7 19.3 0.00 0.00 0.00 54 1021.6
20260902021504 22 213 17.7 19.3 0.00 0.00 0.00 54 1021.8
20260902021003 22 213 17.7 19.3 0.00 0.00 0.00 54 1021.7
20260902020503 22 213 17.7 19.3 0.00 0.00 0.00 54 1021.7
20260902020004 22 190 22.5 24.1 0.00 0.00 0.00 53 1021.5
20260902015504 22 190 22.5 24.1 0.00 0.00 0.00 53 1021.3
20260902015004 22 203 17.7 17.7 0.00 0.00 0.00 53 1021.5
20260902014504 22 214 16.1 17.7 0.00 0.00 0.00 52 1021.4
20260902014004 22 210 11.3 25.7 0.00 0.00 0.00 52 1021.4
20260902013504 23 207 19.3 22.5 0.00 0.00 0.00 50 1021.4
20260902013004 23 207 19.3 22.5 0.00 0.00 0.00 50 1021.5
20260902012504 23 234 12.9 17.7 0.00 0.00 0.00 47 1021.5
20260902012004 23 234 12.9 17.7 0.00 0.00 0.00 47 1021.4
20260902011504 24 202 19.3 25.7 0.00 0.00 0.00 45 1021.6
20260902011003 24 202 19.3 25.7 0.00 0.00 0.00 45 1021.6
20260902010504 24 202 19.3 25.7 0.00 0.00 0.00 45 1021.7
20260902010004 24 205 11.3 20.9 0.00 0.00 0.00 46 1021.6
20260902005503 24 215 14.5 25.7 0.00 0.00 0.00 46 1021.7
20260902005003 24 220 24.1 32.2 0.00 0.00 0.00 45 1021.6
20260902004504 24 181 20.9 24.1 0.00 0.00 0.00 44 1021.6
20260902004003 24 205 24.1 25.7 0.00 0.00 0.00 44 1021.6
20260902003503 25 194 17.7 30.6 0.00 0.00 0.00 42 1021.5
20260902003004 25 212 9.7 12.9 0.00 0.00 0.00 44 1021.7
20260902002504 25 210 16.1 27.4 0.00 0.00 0.00 44 1021.7
20260902002003 25 205 12.9 20.9 0.00 0.00 0.00 45 1021.7
20260902001504 25 212 14.5 29.0 0.00 0.00 0.00 46 1021.8
20260902001004 25 215 12.9 12.9 0.00 0.00 0.00 48 1021.7
20260902000504 25 237 9.7 11.3 0.00 0.00 0.00 46 1021.7
20260902000004 25 178 12.9 27.4 0.00 0.00 0.00 46 1021.6
20260901235503 25 254 12.9 24.1 0.00 0.00 0.00 44 1021.7
20260901235004 25 216 4.8 14.5 0.00 0.00 0.00 45 1021.6
20260901234504 25 200 24.1 24.1 0.00 0.00 0.00 44 1021.8
20260901234003 26 221 16.1 17.7 0.00 0.00 0.00 43 1021.7
20260901233503 26 221 16.1 17.7 0.00 0.00 0.00 43 1021.7
20260901233003 25 219 17.7 27.4 0.00 0.00 0.00 46 1022.0
20260901232504 25 222 19.3 32.2 0.00 0.00 0.00 45 1022.0
20260901232004 25 214 24.1 33.8 0.00 0.00 0.00 43 1021.8
20260901231504 25 229 19.3 32.2 0.00 0.00 0.00 43 1021.7
20260901231004 25 196 12.9 27.4 0.00 0.00 0.00 43 1021.8
20260901230504 25 228 22.5 38.6 0.00 0.00 0.00 41 1021.9
20260901230004 26 260 9.7 16.1 0.00 0.00 0.00 39 1021.9
20260901224004 26 283 24.1 35.4 0.00 0.00 0.00 43 1021.9
20260901223504 25 214 6.4 19.3 0.00 0.00 0.00 44 1022.1